Probability
6 3 3 3 3 3 3 3 6 6 3 13 13 10 13 13 16 16 19 16 13 23 13 13 10 10 10 6 6 3 6 3 3 3 3 0 0 0 0 0 0 0 0
3 6 13 6 3 3 6 6 6 6 6 6 6 13 13 13 13 16 16 16 16 13 19 10 13 6 6 6 6 6 3 3 3 3 0 0 0 0 0 0 0 0 0
3 13 10 6 6 3 6 6 6 3 3 6 13 16 16 16 19 16 16 16 16 19 19 16 10 6 6 6 6 6 3 6 3 0 0 0 0 0 0 0 0 3 3
3 13 13 13 6 3 3 3 6 10 6 13 16 16 16 23 16 13 13 16 16 16 19 19 13 6 6 6 6 6 3 3 3 3 3 0 0 0 0 0 0 0 3
6 13 13 10 10 6 3 6 10 10 13 16 19 16 23 16 16 13 16 13 10 13 19 19 13 13 13 13 10 10 3 3 0 0 0 0 0 0 0 0 0 3 3
10 13 13 13 10 3 6 6 13 6 10 16 19 16 19 10 19 19 16 16 13 6 16 19 16 16 16 16 16 6 10 3 0 0 0 0 0 0 0 0 0 3 3
10 16 16 13 10 3 3 6 10 10 13 23 23 13 16 16 23 26 23 23 23 19 16 19 16 16 16 23 16 13 10 10 6 6 3 0 6 3 0 0 3 3 0
10 13 16 13 13 3 3 10 10 13 16 23 32 26 23 26 26 26 19 23 26 23 23 19 16 19 19 16 16 23 16 13 6 6 6 10 10 10 6 6 10 10 6
10 10 13 10 10 3 3 13 13 16 19 29 32 29 23 29 29 29 32 32 29 29 26 26 23 23 19 19 16 23 23 13 10 13 13 10 10 10 6 6 10 10 10
10 13 16 16 16 13 13 10 13 23 26 26 29 32 23 32 39 39 32 35 32 32 26 29 26 19 23 19 13 19 16 16 19 16 16 16 13 13 10 10 10 10 10
6 10 13 16 16 23 19 16 23 26 29 35 35 32 32 32 32 35 32 35 39 32 29 29 23 23 26 19 13 13 16 16 19 16 16 16 13 13 13 10 10 10 10
6 13 16 16 19 19 19 19 32 35 39 32 32 32 32 32 26 29 32 32 32 32 32 26 23 26 26 19 13 13 10 13 13 13 13 13 13 13 13 13 13 13 10
10 13 13 16 16 19 23 35 35 39 39 35 35 29 32 32 32 26 29 35 29 26 29 23 19 23 23 19 16 16 16 16 16 16 16 16 13 13 16 13 13 13 13
16 19 23 16 16 19 32 35 39 39 35 32 29 29 35 32 29 29 32 32 32 29 19 13 16 19 16 16 13 13 13 16 16 16 16 13 10 10 10 6 13 13 13
23 26 26 23 23 29 32 39 39 35 32 32 29 35 35 29 29 29 32 29 26 23 16 19 13 13 13 13 10 10 13 13 13 16 13 13 6 6 6 6 10 10 10
23 29 29 35 29 32 29 29 29 26 26 29 29 29 23 23 23 19 19 19 16 16 13 13 13 13 13 6 3 3 6 10 13 13 10 10 6 6 3 0 0 3 10
23 23 35 26 29 26 26 32 19 13 23 23 26 23 23 23 19 16 19 19 16 16 16 13 13 13 10 6 0 0 3 10 10 13 10 6 10 6 13 6 0 0 0
23 23 26 29 29 23 16 13 10 16 29 26 26 26 23 23 19 16 19 19 16 13 13 13 13 10 6 6 0 0 0 3 6 6 10 10 13 10 13 13 10 6 6
19 23 26 26 19 10 10 3 10 13 16 23 23 26 26 23 19 16 13 13 13 6 6 10 10 10 6 3 0 0 0 0 3 6 6 6 6 6 0 3 13 10 10
19 23 19 23 13 10 3 6 10 13 13 13 23 23 16 16 13 10 10 10 10 6 3 6 6 3 3 3 0 0 0 6 6 6 3 0 0 0 0 0 6 10 10
19 19 19 19 13 10 6 6 6 6 6 10 10 13 13 10 13 10 10 10 10 3 3 3 3 3 3 3 3 0 0 3 6 6 6 6 0 0 0 0 3 6 6
13 10 16 13 6 6 6 6 6 6 6 10 10 10 10 13 6 6 6 6 6 3 3 3 3 3 3 3 3 0 0 0 3 3 6 6 0 0 0 0 0 0 0
13 10 10 13 10 6 6 6 6 6 6 3 10 10 10 10 10 6 3 3 0 0 0 0 0 0 3 3 3 3 0 0 0 3 0 0 0 0 0 0 0 0 0
16 13 16 13 10 6 10 6 10 6 6 3 0 3 6 6 6 6 3 3 0 0 0 0 0 0 3 3 3 3 0 0 0 0 0 0 0 0 0 0 0 0 0
13 16 16 13 3 6 6 6 10 3 3 0 0 0 0 6 6 6 6 6 3 3 3 3 3 3 3 0 0 0 3 0 0 0 3 3 3 3 0 0 0 0 0
16 16 16 16 6 6 3 3 3 3 3 0 0 0 0 0 0 6 6 0 0 0 0 0 0 0 0 0 0 0 0 0 0 0 0 3 3 3 3 3 0 0 0
Height
5903 5902 5901 5900 5899 5898 5898 5897 5897 5896 5895 5894 5893 5892 5891 5890 5890 5889 5888 5887 5886 5885 5885 5884 5883 5883 5882 5882 5882 5881 5881 5881 5880 5880 5879 5879 5879 5878 5878 5877 5877 5876 5876
5904 5904 5903 5902 5901 5900 5899 5899 5898 5897 5896 5895 5894 5894 5893 5892 5891 5890 5889 5888 5887 5886 5885 5885 5884 5883 5882 5882 5881 5881 5880 5880 5879 5879 5878 5878 5878 5876 5876 5876 5875 5874 5874
5905 5905 5904 5903 5902 5901 5900 5900 5899 5898 5898 5897 5896 5895 5894 5893 5892 5891 5890 5889 5888 5887 5886 5885 5884 5883 5882 5881 5881 5880 5880 5879 5878 5878 5877 5876 5876 5875 5874 5873 5873 5872 5872
5906 5906 5905 5904 5903 5902 5901 5900 5900 5899 5898 5897 5897 5896 5895 5894 5893 5892 5891 5890 5889 5888 5886 5885 5884 5883 5882 5881 5880 5879 5879 5878 5877 5876 5875 5875 5874 5873 5872 5871 5870 5870 5869
5907 5906 5905 5905 5904 5903 5902 5901 5900 5900 5899 5898 5897 5897 5896 5895 5894 5893 5892 5890 5889 5888 5887 5885 5884 5883 5882 5881 5880 5879 5878 5877 5876 5875 5874 5873 5872 5871 5870 5869 5868 5867 5866
5907 5906 5906 5905 5904 5903 5902 5902 5901 5900 5899 5899 5898 5897 5896 5895 5895 5893 5892 5891 5890 5888 5887 5886 5884 5883 5882 5881 5879 5878 5877 5876 5875 5874 5872 5871 5870 5869 5867 5866 5865 5864 5863
5907 5906 5906 5905 5904 5903 5903 5902 5901 5901 5900 5899 5898 5897 5897 5896 5895 5894 5893 5891 5890 5888 5887 5885 5884 5883 5882 5880 5879 5877 5876 5874 5873 5872 5871 5869 5868 5866 5865 5864 5862 5861 5859
5906 5906 5905 5904 5904 5903 5903 5902 5902 5901 5900 5899 5898 5898 5897 5896 5895 5894 5892 5891 5890 5888 5887 5885 5884 5882 5881 5879 5878 5876 5875 5873 5872 5870 5869 5867 5865 5863 5862 5861 5860 5858 5856
5905 5905 5904 5904 5903 5903 5902 5902 5902 5901 5900 5899 5898 5897 5896 5895 5894 5893 5892 5890 5889 5888 5886 5884 5883 5881 5880 5878 5877 5875 5873 5871 5870 5868 5866 5865 5862 5861 5859 5858 5856 5855 5853
5903 5903 5903 5902 5902 5902 5901 5901 5901 5900 5899 5898 5897 5896 5894 5894 5893 5892 5891 5889 5888 5887 5885 5883 5882 5880 5878 5877 5875 5874 5872 5870 5868 5866 5864 5862 5860 5858 5856 5855 5853 5851 5850
5902 5901 5901 5901 5900 5900 5900 5900 5899 5899 5898 5897 5896 5894 5893 5892 5892 5891 5889 5888 5886 5885 5883 5882 5880 5878 5877 5875 5873 5872 5870 5868 5866 5864 5862 5860 5858 5856 5854 5852 5850 5848 5847
5899 5899 5899 5899 5898 5898 5898 5897 5897 5897 5896 5895 5894 5893 5892 5891 5890 5889 5888 5886 5885 5883 5881 5880 5878 5876 5875 5873 5871 5869 5867 5865 5863 5861 5859 5857 5855 5853 5851 5849 5847 5845 5843
5897 5896 5896 5896 5896 5896 5896 5895 5895 5894 5894 5893 5892 5891 5890 5889 5888 5887 5886 5884 5882 5880 5879 5877 5876 5874 5872 5870 5868 5866 5864 5862 5860 5858 5856 5854 5852 5850 5848 5845 5843 5841 5839
5893 5894 5894 5894 5894 5894 5893 5893 5893 5892 5891 5890 5889 5888 5888 5887 5885 5884 5883 5881 5879 5878 5876 5874 5873 5871 5869 5867 5865 5863 5861 5859 5857 5855 5853 5850 5848 5846 5844 5841 5839 5837 5835
5890 5890 5890 5890 5890 5890 5890 5890 5889 5889 5888 5887 5886 5885 5884 5883 5882 5880 5879 5877 5876 5875 5873 5871 5869 5868 5866 5864 5862 5860 5858 5855 5853 5851 5849 5846 5844 5842 5840 5837 5835 5833 5831
5886 5886 5886 5886 5886 5886 5886 5886 5886 5885 5884 5884 5883 5881 5880 5879 5878 5876 5875 5873 5872 5870 5869 5867 5865 5864 5862 5860 5857 5855 5853 5851 5849 5847 5844 5842 5840 5838 5835 5833 5831 5828 5826
5881 5881 5882 5882 5882 5882 5882 5881 5881 5881 5880 5879 5878 5877 5876 5875 5873 5872 5871 5869 5868 5866 5864 5863 5861 5859 5857 5855 5853 5851 5848 5846 5844 5842 5840 5837 5835 5833 5831 5828 5826 5823 5821
5876 5876 5877 5877 5877 5876 5876 5876 5876 5875 5875 5874 5874 5873 5871 5870 5868 5867 5866 5865 5863 5861 5860 5858 5856 5854 5852 5850 5848 5845 5843 5841 5839 5837 5835 5832 5830 5828 5825 5823 5821 5818 5816
5870 5871 5871 5871 5871 5871 5872 5871 5871 5869 5869 5869 5869 5868 5866 5865 5863 5862 5861 5859 5858 5856 5854 5853 5851 5849 5846 5844 5842 5840 5838 5836 5834 5832 5829 5827 5824 5822 5820 5817 5815 5812 5810
5864 5865 5865 5865 5865 5865 5866 5865 5865 5863 5863 5864 5863 5862 5861 5859 5858 5857 5855 5854 5853 5851 5849 5847 5845 5843 5841 5839 5836 5834 5832 5830 5828 5826 5823 5821 5819 5816 5814 5812 5809 5806 5804
5858 5859 5859 5859 5860 5860 5860 5860 5859 5858 5858 5857 5857 5856 5855 5853 5852 5851 5850 5849 5847 5845 5843 5841 5839 5837 5835 5833 5831 5828 5826 5824 5822 5819 5817 5815 5812 5810 5808 5805 5803 5800 5797
5852 5852 5853 5853 5853 5853 5853 5853 5852 5852 5850 5850 5850 5849 5849 5847 5846 5845 5843 5842 5840 5838 5837 5835 5833 5831 5829 5827 5824 5822 5820 5818 5815 5813 5811 5808 5806 5804 5802 5799 5797 5794 5791
5845 5845 5846 5846 5846 5846 5846 5846 5846 5844 5844 5843 5843 5843 5842 5840 5839 5838 5837 5835 5833 5832 5830 5828 5826 5824 5822 5820 5818 5815 5813 5811 5808 5806 5804 5801 5799 5797 5795 5792 5790 5787 5784
5837 5837 5838 5838 5838 5838 5838 5838 5838 5837 5837 5836 5836 5835 5834 5833 5832 5831 5830 5828 5826 5825 5823 5821 5819 5817 5815 5812 5810 5808 5806 5803 5801 5798 5796 5794 5792 5789 5787 5785 5782 5779 5777
5828 5829 5829 5830 5830 5830 5830 5830 5830 5830 5829 5829 5828 5827 5826 5825 5824 5823 5822 5820 5819 5817 5815 5813 5811 5809 5807 5805 5803 5800 5798 5795 5793 5790 5788 5786 5784 5782 5779 5777 5774 5771 5769
5818 5819 5820 5821 5821 5821 5821 5821 5821 5821 5821 5820 5819 5819 5817 5817 5816 5815 5814 5812 5810 5809 5807 5805 5803 5801 5800 5797 5795 5793 5790 5787 5785 5783 5781 5779 5776 5774 5772 5769 5767 5764 5761
Wind_Speed
10 10 10 10 10 10 9 9 10 10 10 10 10 9 8 8 8 9 8 8 8 7 6 5 6 5 4 4 4 4 4 4 5 5 6 6 7 7 8 8 8 8 9
9 9 9 9 9 9 9 9 9 9 9 9 9 9 8 8 8 8 8 8 8 7 6 6 7 6 5 4 4 4 5 5 5 6 6 7 8 8 9 9 9 9 10
7 7 7 8 8 9 8 8 9 8 8 8 8 8 8 8 7 7 8 8 8 7 7 7 7 7 6 5 5 5 5 6 6 7 7 8 8 9 10 10 10 10 11
5 6 6 6 7 7 7 7 7 8 8 8 8 8 8 8 8 8 8 8 8 8 8 8 8 8 7 6 6 6 7 7 7 7 8 8 9 9 10 11 11 11 12
4 4 5 5 5 6 6 6 7 8 8 8 8 8 8 9 9 9 9 9 9 8 8 8 8 8 8 7 7 8 8 8 8 8 8 9 10 10 11 11 13 13 13
3 3 4 3 4 4 4 5 6 7 7 7 7 7 7 8 8 9 9 9 9 9 9 8 8 8 8 8 8 8 8 8 8 8 9 10 11 11 12 12 13 14 14
3 3 3 3 4 4 4 5 5 6 7 7 7 6 6 7 8 8 9 9 9 9 9 9 9 9 9 9 9 9 9 9 9 10 10 11 12 12 13 13 13 13 14
4 3 4 4 4 4 3 4 5 5 5 6 6 6 6 7 8 8 9 9 9 9 10 10 10 10 11 11 11 10 10 10 10 11 12 12 13 13 13 13 13 13 13
6 6 4 4 4 4 4 4 4 4 5 5 6 6 7 8 7 8 9 10 11 11 11 11 11 11 11 11 12 12 11 11 12 12 13 13 14 13 13 14 14 13 13
8 7 6 6 5 5 5 5 5 4 4 5 6 8 8 9 9 9 10 11 11 11 11 12 12 12 12 12 13 13 13 13 13 13 14 13 14 14 14 15 15 15 15
9 9 8 7 6 7 6 6 6 5 5 6 7 8 9 9 9 10 11 12 12 13 13 13 13 13 13 13 14 14 14 14 14 14 15 15 15 15 15 15 16 16 16
11 10 10 8 7 7 7 7 7 7 7 8 9 9 9 10 10 11 12 13 14 14 14 14 14 14 14 14 15 15 16 16 16 16 16 16 17 17 17 17 17 17 17
12 11 11 9 9 8 8 8 8 8 8 10 10 11 11 11 12 12 13 13 14 15 14 14 14 15 15 15 16 16 17 17 17 17 17 17 18 18 18 17 18 18 18
14 14 13 12 11 10 10 9 9 10 10 10 11 12 13 13 13 14 15 15 15 15 15 16 16 16 17 17 17 17 18 18 18 18 19 18 18 18 18 18 19 19 19
15 15 14 13 12 12 12 12 12 12 12 12 12 13 14 14 15 15 16 16 17 17 17 17 18 18 18 19 19 19 19 19 19 20 20 19 19 19 19 19 20 20 19
17 16 15 14 13 13 13 14 14 14 13 13 13 14 15 16 16 16 17 18 18 18 18 18 19 19 20 20 20 21 20 20 20 20 20 20 19 19 20 20 21 21 21
19 17 16 16 15 15 15 16 16 15 14 15 15 16 16 17 18 18 18 18 19 19 19 20 20 21 21 21 21 22 22 21 21 21 20 20 20 20 21 22 22 22 22
19 19 18 18 18 18 17 17 16 16 16 16 17 17 18 18 19 19 19 20 20 20 20 20 21 22 22 21 21 22 22 21 21 21 21 21 21 22 22 22 23 23 23
21 20 20 20 20 20 20 20 20 18 18 18 19 19 20 20 20 19 19 20 20 20 20 21 22 22 22 22 22 22 22 22 22 22 22 22 23 23 23 23 24 24 24
22 21 21 21 21 22 22 22 21 20 20 20 20 21 21 20 20 20 20 20 21 21 21 22 23 23 23 22 23 23 23 23 23 23 23 23 23 23 24 24 25 25 25
23 23 23 23 22 23 23 23 23 23 23 22 22 22 22 21 22 22 22 22 22 22 23 24 24 24 23 23 24 24 24 24 24 24 24 24 24 24 24 25 25 25 25
25 25 25 25 24 25 25 25 25 25 25 24 24 24 24 24 24 24 24 24 24 24 25 25 25 25 25 25 25 25 26 26 26 25 25 26 26 26 26 26 26 26 25
27 27 27 27 27 27 27 28 28 27 25 25 26 26 27 27 27 27 26 26 26 26 26 26 26 26 26 26 26 27 28 27 27 27 28 28 28 28 27 27 27 27 27
28 29 29 29 30 30 30 30 30 29 27 27 28 29 29 28 28 28 28 28 28 27 27 27 27 27 27 27 28 28 29 29 28 28 29 29 29 29 29 28 28 29 28
31 31 31 32 32 32 31 31 30 30 29 29 30 30 30 29 29 29 29 29 29 29 28 28 28 28 28 28 29 29 29 29 29 29 29 29 28 29 29 29 29 29 28
33 33 33 32 33 32 32 32 31 31 31 31 31 31 31 30 30 30 30 30 30 30 29 29 29 29 30 30 30 30 31 29 29 29 29 28 28 29 29 29 29 28 28
Wind_Direction
49 50 50 51 51 49 52 55 54 51 54 55 51 47 46 43 41 40 37 37 36 31 28 31 19 8 357 347 340 329 323 319 314 307 301 298 295 292 290 293 292 289 281
51 49 47 45 51 52 52 53 53 54 53 51 48 48 47 42 41 43 41 37 33 27 27 22 12 4 356 347 337 327 323 322 320 315 309 302 297 296 294 294 293 293 289
52 48 47 45 50 51 52 51 51 50 50 47 46 47 42 37 32 32 31 31 29 23 21 19 11 3 355 349 343 332 326 322 321 314 306 303 300 300 300 297 294 291 287
50 44 44 45 49 48 49 49 47 46 47 47 44 40 41 40 34 30 27 25 19 15 12 9 9 4 358 353 342 333 323 320 321 321 315 308 302 300 299 299 295 290 287
39 38 42 44 45 42 40 42 42 40 43 43 42 39 37 33 32 30 25 19 15 12 9 4 1 4 3 354 340 330 326 323 322 322 321 315 310 306 302 301 298 292 289
20 26 32 34 31 26 27 31 32 32 35 33 34 36 32 25 22 20 17 14 14 14 10 6 4 1 359 354 347 339 329 327 322 318 316 313 309 306 305 303 301 297 293
328 353 2 6 11 11 14 16 15 23 26 30 30 28 22 16 11 7 5 3 3 2 358 355 353 349 347 344 341 338 334 328 323 317 314 312 310 305 304 304 304 302 301
295 315 339 346 345 353 3 4 7 9 12 18 23 20 11 4 360 355 353 352 350 349 346 345 343 339 338 338 336 334 331 327 324 323 319 316 312 309 308 310 309 306 304
288 295 313 324 327 329 328 338 350 1 4 1 0 357 352 348 343 341 339 341 343 342 339 337 335 335 334 333 333 331 327 325 323 321 318 316 314 310 311 313 311 309 306
278 281 292 303 309 315 309 317 327 339 347 344 340 336 334 340 340 337 335 333 332 330 330 330 330 330 330 331 331 328 326 325 323 321 321 319 320 319 313 310 309 307 307
277 277 280 287 288 293 294 292 300 311 320 327 333 328 322 323 328 330 331 329 325 323 321 322 324 327 328 327 326 325 323 323 323 323 321 319 317 316 313 311 309 308 308
269 272 273 278 281 284 283 282 286 295 302 308 313 320 322 323 323 324 323 323 324 323 320 319 321 322 323 323 322 321 320 320 320 319 317 315 314 314 311 309 307 305 305
266 270 270 271 277 279 279 279 281 287 293 296 299 302 309 314 317 318 318 320 321 322 321 318 318 319 319 319 319 319 320 319 318 317 315 314 313 312 309 307 305 304 303
268 270 272 269 270 273 274 276 279 282 288 290 294 297 302 307 310 311 311 314 316 317 317 316 315 315 316 316 315 316 316 316 316 315 315 312 311 310 308 306 305 304 303
266 269 269 268 272 274 273 276 279 282 284 285 289 294 297 300 303 305 307 309 310 312 312 312 312 311 310 310 309 310 311 312 313 313 312 311 310 310 308 306 305 305 304
266 269 266 266 273 274 275 277 278 278 281 287 290 292 296 298 299 299 301 303 305 308 309 309 308 307 306 306 306 307 308 310 310 310 310 310 309 309 310 309 308 305 303
264 265 266 266 270 272 275 272 274 277 280 285 289 292 295 299 300 299 298 299 301 305 307 308 307 305 305 304 305 306 306 307 308 308 307 308 307 305 306 306 306 306 303
261 263 265 266 266 269 272 272 270 273 278 282 287 290 293 296 297 296 295 295 297 301 303 305 305 305 306 303 303 304 304 304 305 305 305 304 304 304 304 304 304 304 302
258 262 265 267 269 269 270 273 274 273 274 278 284 289 293 294 295 294 294 294 296 298 300 302 303 304 304 303 303 303 302 302 303 302 303 302 302 302 303 303 303 303 301
259 263 266 268 269 268 274 273 274 278 280 280 286 289 291 292 293 293 294 295 296 298 299 300 301 302 302 302 303 303 302 301 302 302 300 300 301 300 301 303 304 303 302
259 261 264 267 270 272 273 275 275 279 280 280 284 288 288 289 290 290 291 292 293 295 298 299 300 300 300 301 302 301 300 300 299 299 298 299 299 300 301 302 303 303 302
257 260 263 266 269 273 275 276 275 279 279 278 283 287 289 289 289 289 290 289 291 292 295 296 297 298 298 298 298 297 296 296 296 297 297 296 297 298 299 300 300 300 301
257 259 262 266 269 272 273 274 277 277 276 278 281 284 286 288 289 289 290 290 290 291 294 296 297 297 298 299 298 296 295 296 296 296 296 297 297 296 297 298 298 299 299
258 261 265 268 270 271 271 272 275 276 277 279 281 282 284 285 287 288 288 289 290 290 292 294 295 295 296 297 297 296 295 295 296 295 295 296 296 296 297 297 297 297 297
259 261 264 267 269 270 271 273 274 274 274 278 281 281 282 282 284 285 286 287 287 289 290 291 293 293 295 296 297 297 296 296 296 295 296 296 295 296 296 298 298 297 297
260 262 263 266 267 267 268 269 271 272 274 277 279 280 280 280 281 284 285 285 286 289 289 289 291 293 296 297 298 298 296 295 294 295 296 295 294 295 296 297 299 300 300